Regional Weather Roundup
Issued by NWS Bismarck, ND

Home | Current Version | Previous Version | Text Only | Print | Product List | Glossary On
Versions: 1 2 3 4 5 6 7 8 9 10 11 12 13 14 15 16 17 18 19 20 21 22 23 24 25 26 27 28 29 30 31 32 33 34 35 36 37 38 39 40 41 42 43 44 45 46 47 48 49 50
000
ASUS43 KBIS 100310
RWRBIS

NWR BROADCAST TEXT
NATIONAL WEATHER SERVICE BISMARCK ND
900 PM CST FRI DEC 09 2016

NOTE: "FAIR" INDICATES FEW OR NO CLOUDS BELOW 12,000 FEET WITH NO
SIGNIFICANT WEATHER AND/OR OBSTRUCTIONS TO VISIBILITY.


CITY           SKY/WX    TMP DP  RH WIND       PRES   REMARKS
WILLISTON      CLOUDY   -14 -19  79 N3        30.47F
MINOT          CLOUDY   -14 -19  79 W5        30.50R WCI -26
MINOT AFB      CLOUDY   -19 -25  74 NW8       30.49S WCI -37
BISMARCK       CLOUDY   -16 -20  82 CALM      30.52F
DICKINSON      CLOUDY   -15 -20  78 S3        30.36
GARRISON         N/A    -15 -19  82 N3        30.47F
HETTINGER ARPT CLOUDY    -9 -12  87 S3        30.38S
JAMESTOWN      CLOUDY   -12 -17  78 NW12      30.51S WCI -32
CARRINGTON     FAIR     -15 -18  84 W9        30.52S WCI -33
HAZEN          MOCLDY   -15 -22  70 SE3       30.51F
RUGBY            N/A    -20 -26  76 W8        30.51S WCI -39
STANLEY        FAIR     -15 -20  76 W3        30.44F
TIOGA          FAIR     -15 -18  84 W5        30.44F WCI -27
WATFORD CITY   FAIR     -18 -22  83 SW3       30.46S
$$

CITY           SKY/WX    TMP DP  RH WIND       PRES   REMARKS
GRAND FORKS    CLOUDY    -5 -10  79 NW8       30.56S WCI -20
GRAND FORKS AF MOCLDY    -6 -12  76 NW7       30.55S WCI -20
DEVILS LAKE    CLEAR    -12 -17  78 W9        30.51F WCI -30
FARGO          CLOUDY    -2 -10  69 W9        30.56S WCI -18
CANDO          FAIR     -13 -18  77 NW5       30.53F WCI -25
CAVALIER         N/A     -2  -8  78 NW9       30.56S WCI -18
GRAFTON        CLOUDY    -2  -8  78 NW6       30.57F WCI -14
GWINNER        FAIR      -4  -8  84 NW13      30.53F WCI -23
LANGDON        CLOUDY    -9 -15  77 NW10      30.47S WCI -28
ROLLA          FAIR     -18 -24  76 NW6       30.46F WCI -33
WALHALLA         N/A     -4  -4 100 NW5       30.56S WCI -15
$$

CITY           SKY/WX    TMP DP  RH WIND       PRES   REMARKS
ABERDEEN       CLOUDY    -3 -10  72 N8        30.55S WCI -18
MOBRIDGE       CLOUDY    -5 -12  72 N5        30.46F WCI -16
BUFFALO          N/A     -4  -8  83 E6        30.23F WCI -16
RAPID CITY     CLOUDY     1  -4  79 SE9       30.31F WCI -14
GLASGOW        CLOUDY    -3  -8  79 E18       30.33F WCI -25
SIDNEY         CLOUDY   -13 -18  78 N5        30.46F WCI -25
WOLF POINT     CLOUDY    -6 -13  71 E8        30.44F WCI -21
GLENDIVE       FLURRIES  -7 -11  83 E8        30.38F WCI -23
MILES CITY     CLOUDY     4  -3  73 E7        30.30F WCI  -8
BAKER          CLOUDY    -7 -11  83 SE7       30.32S WCI -21
$$

CITY           SKY/WX    TMP DP  RH WIND       PRES   REMARKS
BILLINGS       CLOUDY     6   2  83 NE7       30.12F WCI  -6
GREAT FALLS    CLOUDY    -1  -6  79 N5        30.07F WCI -11
REGINA         CLEAR    -13 -18  77 S5        30.45F WCI -25
ESTEVAN        PTCLDY   -18 -24  76 W3        30.47F
$$





USA.gov is the U.S. government's official web portal to all federal, state and local government web resources and services.